Weather Roundup
Issued by NWS Corpus Christi, TX

Home | Current Version | Previous Version | Text Only | Print | Product List | Glossary On
Versions: 1 2 3 4 5 6 7 8 9 10 11 12 13 14 15 16 17 18 19 20 21 22 23 24 25 26 27 28 29 30 31 32 33 34 35 36 37 38 39 40 41 42 43 44 45 46 47 48 49 50
000
ASUS44 KCRP 181010
HRRCRP

SOUTH TEXAS REGIONAL WEATHER ROUNDUP
NATIONAL WEATHER SERVICE CORPUS CHRISTI TX
400 AM CST SAT NOV 18 2017


TXZ229>244-181100-
...CORPUS CHRISTI AREA OBSERVATIONS...

CITY           SKY/WX    TMP DP  RH WIND       PRES   REMARKS
CORPUS CHRISTI CLEAR     70  69  97 S10       29.83F
NAS CORPUS CHR CLEAR     76  72  87 S16       29.83F
ROCKPORT       CLEAR     74  71  91 S10G21    29.83F
KINGSVILLE ARP CLOUDY    68  68 100 SE3       29.83F
KINGSVILLE NAS CLEAR     69  69 100 S8        29.83F
ALICE          CLOUDY    69  68  96 S9        29.82F
$$

...VICTORIA AREA OBSERVATIONS...

CITY           SKY/WX    TMP DP  RH WIND       PRES   REMARKS
PORT LAVACA    NOT AVBL
VICTORIA       CLOUDY    69  68  96 S6        29.84F
BEEVILLE       CLOUDY   N/A N/A N/A S9        29.84F
PLEASANTON     CLOUDY    70  68  95 S3        29.83F
SAN ANTONIO    MOCLDY    69  66  90 S9        29.84S
$$

...LAREDO AREA OBSERVATIONS...

CITY           SKY/WX    TMP DP  RH WIND       PRES   REMARKS
LAREDO         CLOUDY    70  68  93 SE9       29.81S
COTULLA        CLOUDY    69  66  90 SE7       29.81F
DEL RIO        CLEAR     64  63  96 CALM      29.81R
MCALLEN        CLEAR     73  70  90 SE13      29.83F
HEBBRONVILLE   CLOUDY    70  67  92 S15       29.83S
$$

...OTHER TEXAS OBSERVATIONS...

CITY           SKY/WX    TMP DP  RH WIND       PRES   REMARKS
BROWNSVILLE    CLEAR     75  70  84 S10       29.84F
HOUSTON        PTCLDY    72  68  87 S8        29.82F
COL. STATION   MOCLDY    72  67  84 S16       29.79F
AUSTIN         CLOUDY    71  67  87 SW18G33   29.80S
WACO           CLOUDY    71  67  87 S14       29.74S
FORT WORTH     CLOUDY    70  64  81 S12       29.66F
WICHITA FALLS  MOCLDY    70  57  63 SW18      29.63R
LUBBOCK        PTCLDY    57  27  31 NW21      29.82R
EL PASO        PTCLDY    68  29  23 NW8G23    30.04R
$$

...MARINE OBSERVATIONS...

STATION/POSITION TIME  SKY/WX   TEMP    WIND        PRES    VSBY  WAVE   SWELL
                                AIR SEA DIR/SP/G                  HT/PER HT/PER
                 (UTC)          (F)     (DEG/KT/KT) (MB)    (MI)  (FT/S) (FT/S)
PORT ARANSAS     1000            76 75  170/ 20/ 22 1009.9F
BUOY 90 E PORT A 0950            78 78  180/ 19/ 23 1010.9S         6/ 6
BUOY 200 E PT IS 0950            78 80  170/ 16/ 19 1013.0F         4/ 5
BUOY 15 E GALVES 0850            75 72  200/ 16/ 19 1010.8          3/ 5
$$



USA.gov is the U.S. government's official web portal to all federal, state and local government web resources and services.